CW7235 Weather Reports


time (UTC)temp
C
wind
direction
speed
KPH
gust
KPH
rain 1hr
cm
rain 24hr
cm
rain mn
cm
humidity
%
barometer
mb
20260906093004 20 212 0.0 0.0 0.00 0.84 0.00 94 1010.9
20260906091503 20 212 0.0 0.0 0.00 0.84 0.00 94 1010.9
20260906084503 21 212 0.0 0.0 0.00 0.84 0.00 94 1010.7
20260906081505 21 212 0.0 0.0 0.00 0.84 0.00 94 1010.5
20260906080007 21 212 0.0 0.0 0.00 0.84 0.00 94 1010.6
20260906074508 21 212 0.0 0.0 0.00 0.84 0.00 94 1010.7
20260906071505 21 212 0.0 0.0 0.00 0.84 0.00 94 1010.8
20260906070005 21 212 0.0 0.0 0.00 0.84 0.00 94 1010.7
20260906064504 21 212 0.0 0.0 0.00 0.84 0.00 94 1010.8
20260906063007 21 212 0.0 0.0 0.00 0.84 0.00 94 1011.1
20260906061503 21 212 0.0 0.0 0.00 0.84 0.00 94 1011.3
20260906054508 21 212 0.0 0.0 0.00 0.84 0.00 94 1011.6
20260906053006 21 212 0.0 0.0 0.00 0.84 0.00 94 1011.6
20260906051504 21 212 0.0 0.0 0.00 0.84 0.00 94 1011.9
20260906044508 21 212 0.0 0.0 0.00 0.84 0.00 94 1011.9
20260906043006 21 212 0.0 0.0 0.00 0.84 0.00 93 1011.7
20260906041505 21 212 0.0 0.0 0.00 0.84 0.00 93 1011.5
20260906040011 21 212 0.0 0.0 0.00 0.84 0.00 93 1011.5
20260906034508 21 212 0.0 0.0 0.00 0.84 0.84 93 1011.7
20260906033007 22 212 0.0 0.0 0.00 0.84 0.84 93 1012.0
20260906031508 22 212 0.0 0.0 0.00 0.84 0.84 93 1011.9
20260906030006 22 212 0.0 0.0 0.00 0.84 0.84 93 1012.0
20260906024506 22 212 0.0 0.0 0.00 0.84 0.84 93 1012.1
20260906021506 22 212 0.0 0.0 0.00 0.84 0.84 93 1011.6
20260906020009 22 212 0.0 0.0 0.00 0.84 0.84 93 1011.4
20260906014508 22 212 0.0 0.0 0.00 0.84 0.84 93 1011.1
20260906010008 22 212 0.0 0.0 0.00 0.84 0.84 92 1010.9
20260906004505 22 212 0.0 0.0 0.03 0.84 0.84 92 1010.9
20260906003006 22 212 0.0 0.0 0.03 0.84 0.84 92 1011.0
20260906001507 22 212 0.0 1.6 0.03 0.84 0.84 91 1011.1
20260905234506 22 234 3.2 8.0 0.00 0.81 0.81 90 1011.5
20260905231506 22 126 1.6 8.0 0.00 0.81 0.81 89 1011.8
20260905230010 23 126 1.6 4.8 0.00 0.81 0.81 90 1011.7
20260905223009 23 150 1.6 4.8 0.81 0.81 0.81 89 1011.7
20260905221506 23 236 1.6 6.4 0.81 0.81 0.81 88 1011.9
20260905220006 23 319 1.6 6.4 0.81 0.81 0.81 84 1010.9
20260905214504 25 103 3.2 14.5 0.79 0.79 0.79 77 1010.0
20260905213005 30 129 11.3 41.8 0.00 0.00 0.00 60 1011.0
20260905211505 36 315 1.6 6.4 0.00 0.00 0.00 55 1009.6
20260905210008 37 313 1.6 6.4 0.00 0.00 0.00 54 1009.5
20260905204508 37 5 1.6 6.4 0.00 0.00 0.00 51 1009.7
20260905203005 37 331 3.2 9.7 0.00 0.00 0.00 52 1009.5
20260905200008 37 281 1.6 6.4 0.00 0.00 0.00 54 1009.5
20260905194506 36 189 3.2 9.7 0.00 0.00 0.00 54 1009.8
20260905191505 36 115 3.2 11.3 0.00 0.00 0.00 55 1010.2
20260905190008 36 213 3.2 14.5 0.00 0.00 0.00 57 1010.5
20260905184506 36 227 3.2 6.4 0.00 0.00 0.00 56 1010.8
20260905180008 36 12 1.6 8.0 0.00 0.00 0.00 58 1011.6
20260905174506 35 38 3.2 6.4 0.00 0.00 0.00 59 1011.6
20260905173005 35 290 3.2 9.7 0.00 0.00 0.00 61 1011.9
20260905171505 34 30 1.6 8.0 0.00 0.00 0.00 61 1012.2
20260905170006 34 323 3.2 6.4 0.00 0.00 0.00 64 1012.3
20260905163006 33 323 3.2 12.9 0.00 0.00 0.00 63 1013.0
20260905160010 32 298 4.8 12.9 0.00 0.00 0.00 69 1013.2
20260905154506 32 236 3.2 12.9 0.00 0.00 0.00 69 1013.4
20260905153008 32 211 3.2 14.5 0.00 0.00 0.00 72 1013.5
20260905151505 31 178 3.2 9.7 0.00 0.00 0.00 74 1013.6
20260905150007 30 328 1.6 9.7 0.00 0.00 0.00 77 1013.8
20260905144506 30 323 3.2 8.0 0.00 0.00 0.00 79 1013.9
20260905143007 29 215 1.6 6.4 0.00 0.00 0.00 82 1013.9
20260905141506 28 240 3.2 8.0 0.00 0.00 0.00 83 1014.0
20260905134506 27 259 3.2 11.3 0.00 0.00 0.00 87 1014.1
20260905133005 26 225 3.2 11.3 0.00 0.00 0.00 89 1014.1
20260905131505 26 234 4.8 9.7 0.00 0.00 0.00 92 1014.0
20260905130004 25 220 3.2 9.7 0.00 0.00 0.00 93 1014.1
20260905124504 25 234 3.2 6.4 0.00 0.00 0.00 94 1014.1
20260905121505 24 232 3.2 11.3 0.00 0.00 0.00 94 1014.0
20260905120006 24 215 1.6 8.0 0.00 0.00 0.00 94 1014.0
20260905114505 23 291 0.0 6.4 0.00 0.00 0.00 94 1013.9
20260905113004 23 227 0.0 0.0 0.00 0.00 0.00 93 1013.7
20260905111504 23 227 0.0 0.0 0.00 0.00 0.00 93 1013.7
20260905103004 23 227 0.0 0.0 0.00 0.00 0.00 93 1013.3
20260905101505 23 227 0.0 0.0 0.00 0.00 0.00 93 1013.2
20260905100007 24 227 0.0 0.0 0.00 0.00 0.00 93 1013.2